Weather History for Show Low, AZ

Change the Weather History Date:

Saturday, May 11, 2013

  Actual Average Record
Temperature  
Mean Temperature 52 °F -  
Max Temperature 68 °F 71 °F 84 °F (1974)
Min Temperature 35 °F 51 °F 26 °F (1979)
Degree Days  
Heating Degree Days 14    
Growing Degree Days 2 (Base 50)    
Moisture  
Dew Point 25 °F    
Average Humidity 38    
Maximum Humidity 81    
Minimum Humidity 18    
Precipitation  
Precipitation 0.00 in - - ()
Sea Level Pressure  
Sea Level Pressure 30.33 in    
Wind  
Wind Speed 7 mph (ENE)    
Max Wind Speed 21 mph    
Max Gust Speed 29 mph    
Visibility 10 miles    
Events      
Averages and records for this station are not official NWS values.
T = Trace of Precipitation, MM = Missing Value Source: NWS Daily Summary

Daily Weather History Graph

Daily Weather History Graph

Search for Another Location

Airport:

Trip Planner

Search our weather history database for the weather conditions in past years. The results will help you decide how hot, cold, wet, or windy it might be!

Date:

Astronomy

May. 11, 2013 Rise Set
Actual Time 5:20 AM MST 7:12 PM MST
Civil Twilight 4:53 AM MST 7:39 PM MST
Nautical Twilight 4:20 AM MST 8:13 PM MST
Astronomical Twilight 3:44 AM MST 8:48 PM MST
Moon 6:32 AM MST (5/11) 8:53 PM MST (5/11)
Length of Visible Light 14h 46m
Length of Day
13h 51m
Waxing Crescent, 3% of the Moon is Illuminated
May 11
Waxing Crescent
May 17
First Quarter
May 24
Full
May 31
Last Quarter
Jun 8
New

Hourly Weather History & Observations

Time (MST) Temp. Windchill Dew Point Humidity Pressure Visibility Wind Dir Wind Speed Gust Speed Precip Events Conditions
12:15 AM 46.4 °F 45.2 °F 30.2 °F 53% 30.30 in 10.0 mi SSE 3.5 mph - N/A   Clear
12:35 AM 44.6 °F 42.2 °F 32.0 °F 61% 30.30 in 10.0 mi WSW 4.6 mph - N/A   Clear
12:55 AM 44.6 °F - 32.0 °F 61% 30.30 in 10.0 mi Calm Calm - N/A   Clear
1:15 AM 39.2 °F 37.0 °F 28.4 °F 65% 30.30 in 10.0 mi East 3.5 mph - N/A   Clear
1:35 AM 41.0 °F 39.0 °F 28.4 °F 61% 30.30 in 10.0 mi ENE 3.5 mph - N/A   Clear
1:55 AM 41.0 °F - 30.2 °F 65% 30.30 in 10.0 mi Calm Calm - N/A   Partly Cloudy
2:15 AM 41.0 °F 38.0 °F 28.4 °F 61% 30.30 in 10.0 mi ENE 4.6 mph - N/A   Scattered Clouds
2:35 AM 41.0 °F 38.0 °F 28.4 °F 61% 30.30 in 10.0 mi NE 4.6 mph - N/A   Clear
2:55 AM 41.0 °F 38.0 °F 28.4 °F 61% 30.30 in 10.0 mi NE 4.6 mph - N/A   Partly Cloudy
3:15 AM 41.0 °F 38.0 °F 28.4 °F 61% 30.30 in 10.0 mi NNE 4.6 mph - N/A   Clear
3:35 AM 39.2 °F 37.0 °F 28.4 °F 65% 30.30 in 10.0 mi NNW 3.5 mph - N/A   Clear
3:55 AM 39.2 °F 37.0 °F 28.4 °F 65% 30.30 in 10.0 mi East 3.5 mph - N/A   Clear
4:15 AM 37.4 °F - 28.4 °F 70% 30.30 in 10.0 mi Calm Calm - N/A   Clear
4:35 AM 39.2 °F - 30.2 °F 70% 30.31 in 10.0 mi Calm Calm - N/A   Clear
4:55 AM 37.4 °F 32.8 °F 30.2 °F 75% 30.31 in 10.0 mi West 5.8 mph - N/A   Clear
5:15 AM 35.6 °F 30.7 °F 30.2 °F 81% 30.32 in 10.0 mi WNW 5.8 mph - N/A   Clear
5:35 AM 35.6 °F - 28.4 °F 75% 30.33 in 10.0 mi Calm Calm - N/A   Clear
5:55 AM 35.6 °F - 28.4 °F 75% 30.33 in 10.0 mi Calm Calm - N/A   Clear
6:15 AM 37.4 °F - 32.0 °F 81% 30.34 in 10.0 mi Calm Calm - N/A   Clear
6:35 AM 41.0 °F - 32.0 °F 70% 30.35 in 10.0 mi Calm Calm - N/A   Clear
6:55 AM 44.6 °F 43.1 °F 32.0 °F 61% 30.35 in 10.0 mi NNW 3.5 mph - N/A   Clear
7:15 AM 46.4 °F 44.3 °F 32.0 °F 57% 30.35 in 10.0 mi NNE 4.6 mph - N/A   Clear
7:35 AM 48.2 °F - 32.0 °F 54% 30.35 in 10.0 mi NNE 6.9 mph - N/A   Clear
7:55 AM 51.8 °F - 32.0 °F 47% 30.35 in 10.0 mi NNE 8.1 mph - N/A   Clear
8:15 AM 55.4 °F - 30.2 °F 38% 30.35 in 10.0 mi ENE 10.4 mph - N/A   Clear
8:35 AM 57.2 °F - 28.4 °F 33% 30.36 in 10.0 mi ENE 10.4 mph - N/A   Clear
8:55 AM 59.0 °F - 26.6 °F 29% 30.35 in 10.0 mi NE 10.4 mph 18.4 mph N/A   Clear
9:15 AM 59.0 °F - 28.4 °F 31% 30.35 in 10.0 mi NE 16.1 mph 20.7 mph N/A   Clear
9:35 AM 62.6 °F - 24.8 °F 24% 30.35 in 10.0 mi ENE 19.6 mph 26.5 mph N/A   Clear
9:55 AM 62.6 °F - 24.8 °F 24% 30.35 in 10.0 mi ENE 16.1 mph 27.6 mph N/A   Clear
10:15 AM 62.6 °F - 26.6 °F 26% 30.35 in 10.0 mi East 18.4 mph 25.3 mph N/A   Partly Cloudy
10:35 AM 64.4 °F - 24.8 °F 22% 30.36 in 10.0 mi East 19.6 mph 28.8 mph N/A   Clear
10:55 AM 64.4 °F - 24.8 °F 22% 30.36 in 10.0 mi East 16.1 mph 24.2 mph N/A   Partly Cloudy
11:15 AM 64.4 °F - 26.6 °F 24% 30.35 in 10.0 mi NE 13.8 mph 26.5 mph N/A   Mostly Cloudy
11:35 AM 64.4 °F - 24.8 °F 22% 30.35 in 10.0 mi East 13.8 mph 24.2 mph N/A   Mostly Cloudy
11:55 AM 64.4 °F - 24.8 °F 22% 30.35 in 10.0 mi East 15.0 mph 23.0 mph N/A   Scattered Clouds
12:15 PM 66.2 °F - 24.8 °F 21% 30.35 in 10.0 mi ENE 18.4 mph 24.2 mph N/A   Scattered Clouds
12:35 PM 66.2 °F - 24.8 °F 21% 30.34 in 10.0 mi ENE 13.8 mph 27.6 mph N/A   Scattered Clouds
12:55 PM 64.4 °F - 24.8 °F 22% 30.34 in 10.0 mi ENE 20.7 mph 26.5 mph N/A   Partly Cloudy
1:15 PM 64.4 °F - 26.6 °F 24% 30.34 in 10.0 mi ENE 16.1 mph 26.5 mph N/A   Partly Cloudy
1:35 PM 64.4 °F - 26.6 °F 24% 30.35 in 10.0 mi ENE 13.8 mph 26.5 mph N/A   Scattered Clouds
1:55 PM 66.2 °F - 26.6 °F 23% 30.33 in 10.0 mi East 17.3 mph 24.2 mph N/A   Partly Cloudy
2:15 PM 66.2 °F - 23.0 °F 19% 30.33 in 10.0 mi SE 16.1 mph 23.0 mph N/A   Partly Cloudy
2:35 PM 66.2 °F - 23.0 °F 19% 30.32 in 10.0 mi East 11.5 mph 21.9 mph N/A   Scattered Clouds
2:55 PM 68.0 °F - 24.8 °F 20% 30.32 in 10.0 mi East 11.5 mph 17.3 mph N/A   Clear
3:15 PM 68.0 °F - 24.8 °F 20% 30.31 in 10.0 mi NE 3.5 mph - N/A   Partly Cloudy
3:35 PM 66.2 °F - 23.0 °F 19% 30.31 in 10.0 mi NE 9.2 mph 21.9 mph N/A   Partly Cloudy
3:55 PM 66.2 °F - 24.8 °F 21% 30.31 in 10.0 mi East 10.4 mph 21.9 mph N/A   Partly Cloudy
4:15 PM 68.0 °F - 23.0 °F 18% 30.30 in 10.0 mi NNW 4.6 mph - N/A   Scattered Clouds
4:35 PM 66.2 °F - 21.2 °F 18% 30.31 in 10.0 mi ENE 13.8 mph 24.2 mph N/A   Partly Cloudy
4:55 PM 66.2 °F - 21.2 °F 18% 30.30 in 10.0 mi ENE 13.8 mph 17.3 mph N/A   Scattered Clouds
5:15 PM 64.4 °F - 19.4 °F 18% 30.31 in 10.0 mi NNE 8.1 mph - N/A   Scattered Clouds
5:35 PM 66.2 °F - 21.2 °F 18% 30.30 in 10.0 mi NNE 12.7 mph - N/A   Partly Cloudy
5:55 PM 66.2 °F - 21.2 °F 18% 30.30 in 10.0 mi NE 13.8 mph 23.0 mph N/A   Scattered Clouds
6:15 PM 66.2 °F - 23.0 °F 19% 30.31 in 10.0 mi NE 13.8 mph - N/A   Scattered Clouds
6:35 PM 64.4 °F - 19.4 °F 18% 30.31 in 10.0 mi NE 9.2 mph - N/A   Clear
6:55 PM 62.6 °F - 19.4 °F 19% 30.32 in 10.0 mi NE 8.1 mph - N/A   Clear
7:15 PM 60.8 °F - 19.4 °F 20% 30.32 in 10.0 mi NE 6.9 mph - N/A   Clear
7:35 PM 57.2 °F - 19.4 °F 23% 30.33 in 10.0 mi NE 6.9 mph - N/A   Clear
7:55 PM 55.4 °F - 19.4 °F 25% 30.33 in 10.0 mi ENE 4.6 mph - N/A   Clear
8:15 PM 55.4 °F - 19.4 °F 25% 30.34 in 10.0 mi East 3.5 mph - N/A   Clear
8:35 PM 55.4 °F - 19.4 °F 25% 30.35 in 10.0 mi East 3.5 mph - N/A   Clear
8:55 PM 53.6 °F - 19.4 °F 26% 30.35 in 10.0 mi ESE 3.5 mph - N/A   Clear
9:15 PM 51.8 °F - 19.4 °F 28% 30.36 in 10.0 mi ESE 5.8 mph - N/A   Clear
9:35 PM 51.8 °F - 19.4 °F 28% 30.36 in 10.0 mi East 3.5 mph - N/A   Clear
9:55 PM 48.2 °F - 19.4 °F 32% 30.37 in 10.0 mi Calm Calm - N/A   Clear
10:15 PM 48.2 °F - 19.4 °F 32% 30.37 in 10.0 mi SSW 4.6 mph - N/A   Clear
10:35 PM 48.2 °F - 21.2 °F 34% 30.37 in 10.0 mi Calm Calm - N/A   Clear
10:55 PM 53.6 °F - 24.8 °F 33% 30.37 in 10.0 mi SSE 9.2 mph - N/A   Clear
11:15 PM 51.8 °F - 24.8 °F 35% 30.37 in 10.0 mi SSE 5.8 mph - N/A   Clear
11:35 PM 48.2 °F - 24.8 °F 40% 30.37 in 10.0 mi SSW 6.9 mph - N/A   Clear
11:55 PM 44.6 °F 43.1 °F 24.8 °F 46% 30.37 in 10.0 mi SW 3.5 mph - N/A   Clear